H1 CPF 2 NER 2025 11 9 9 313 01 glonass138 H2 1805301 9138 43508 2025 11 9 0 0 0 2025 11 12 23 45 0 900 1 1 0 0 0 1 H9 10 0 60988 0.00000 0 21534516.786 13698337.531 -357510.491 10 0 60988 900.00000 0 21502996.287 13450938.594 2869548.658 10 0 60988 1800.00000 0 21102531.226 13028673.854 6040976.465 10 0 60988 2700.00000 0 20319876.611 12487305.741 9095291.007 10 0 60988 3600.00000 0 19155055.122 11885257.709 11973283.009 10 0 60988 4500.00000 0 17621532.880 11280976.087 14619158.238 10 0 60988 5400.00000 0 15745847.598 10730304.840 16981613.724 10 0 60988 6300.00000 0 13566703.835 10283983.641 19014827.417 10 0 60988 7200.00000 0 11133572.114 9985374.384 20679342.587 10 0 60988 8100.00000 0 8504849.132 9868511.657 21942830.400 10 0 60988 9000.00000 0 5745654.368 9956559.163 22780716.369 10 0 60988 9900.00000 0 2925353.347 10260737.195 23176658.866 10 0 60988 10800.00000 0 114909.103 10779766.716 23122870.613 10 0 60988 11700.00000 0 -2615829.520 11499854.196 22620276.745 10 0 60988 12600.00000 0 -5200791.275 12395218.876 21678506.028 10 0 60988 13500.00000 0 -7580188.035 13429141.560 20315714.665 10 0 60988 14400.00000 0 -9702759.044 14555492.210 18558245.184 10 0 60988 15300.00000 0 -11527661.015 15720673.371 16440125.970 10 0 60988 16200.00000 0 -13025925.645 16865898.785 14002420.018 10 0 60988 17100.00000 0 -14181423.844 17929712.017 11292434.542 10 0 60988 18000.00000 0 -14991296.415 18850639.299 8362806.000 10 0 60988 18900.00000 0 -15465833.256 19569864.629 5270477.847 10 0 60988 19800.00000 0 -15627806.381 20033813.641 2075590.768 10 0 60988 20700.00000 0 -15511285.230 20196536.186 -1159692.675 10 0 60988 21600.00000 0 -15159984.894 20021785.751 -4372405.434 10 0 60988 22500.00000 0 -14625217.869 19484706.484 -7500010.790 10 0 60988 23400.00000 0 -13963537.001 18573055.222 -10481629.330 10 0 60988 24300.00000 0 -13234170.537 17287905.693 -13259233.105 10 0 60988 25200.00000 0 -12496359.004 15643804.179 -15778782.620 10 0 60988 26100.00000 0 -11806707.741 13668369.337 -17991283.689 10 0 60988 27000.00000 0 -11216667.938 11401352.543 -19853743.067 10 0 60988 27900.00000 0 -10770253.314 8893197.917 -21330004.100 10 0 60988 28800.00000 0 -10502089.146 6203162.306 -22391446.291 10 0 60988 29700.00000 0 -10435875.971 3397073.809 -23017535.683 10 0 60988 30600.00000 0 -10583332.399 544822.322 -23196216.043 10 0 60988 31500.00000 0 -10943661.029 -2282313.443 -22924134.075 10 0 60988 32400.00000 0 -11503559.302 -5014391.626 -22206695.157 10 0 60988 33300.00000 0 -12237774.097 -7585472.844 -21057949.277 10 0 60988 34200.00000 0 -13110176.129 -9936115.863 -19500310.064 10 0 60988 35100.00000 0 -14075308.410 -12015600.736 -17564112.820 10 0 60988 36000.00000 0 -15080343.325 -13783788.374 -15287020.425 10 0 60988 36900.00000 0 -16067365.796 -15212540.702 -12713288.778 10 0 60988 37800.00000 0 -16975886.462 -16286643.899 -9892906.037 10 0 60988 38700.00000 0 -17745479.224 -17004197.925 -6880622.214 10 0 60988 39600.00000 0 -18318432.276 -17376457.703 -3734887.897 10 0 60988 40500.00000 0 -18642301.229 -17427134.149 -516722.505 10 0 60988 41400.00000 0 -18672256.983 -17191185.686 2711466.128 10 0 60988 42300.00000 0 -18373129.597 -16713152.080 5887088.038 10 0 60988 43200.00000 0 -17721062.086 -16045101.422 8948580.070 10 0 60988 44100.00000 0 -16704704.381 -15244277.102 11836594.275 10 0 60988 45000.00000 0 -15325896.860 -14370544.018 14495142.957 10 0 60988 45900.00000 0 -13599814.102 -13483741.453 16872678.568 10 0 60988 46800.00000 0 -11554561.922 -12641053.774 18923088.017 10 0 60988 47700.00000 0 -9230243.427 -11894509.208 20606582.603 10 0 60988 48600.00000 0 -6677531.727 -11288711.485 21890466.902 10 0 60988 49500.00000 0 -3955807.316 -10858899.344 22749772.191 10 0 60988 50400.00000 0 -1130936.066 -10629415.248 23167742.484 10 0 60988 51300.00000 0 1727221.360 -10612647.659 23136163.922 10 0 60988 52200.00000 0 4547466.795 -10808491.579 22655531.034 10 0 60988 53100.00000 0 7259979.522 -11204350.580 21735046.219 10 0 60988 54000.00000 0 9798977.351 -11775681.056 20392451.803 10 0 60988 54900.00000 0 12105214.134 -12487056.752 18653696.981 10 0 60988 55800.00000 0 14128210.419 -13293709.837 16552445.042 10 0 60988 56700.00000 0 15828124.669 -14143484.547 14129429.324 10 0 60988 57600.00000 0 17177187.122 -14979121.825 11431669.387 10 0 60988 58500.00000 0 18160636.263 -15740778.950 8511561.808 10 0 60988 59400.00000 0 18777118.683 -16368677.809 5425862.811 10 0 60988 60300.00000 0 19038535.511 -16805769.453 2234582.350 10 0 60988 61200.00000 0 18969342.055 -17000301.477 -1000188.504 10 0 60988 62100.00000 0 18605330.553 -16908178.450 -4215493.422 10 0 60988 63000.00000 0 17991948.009 -16495014.200 -7348745.314 10 0 60988 63900.00000 0 17182221.035 -15737787.714 -10338954.299 10 0 60988 64800.00000 0 16234376.424 -14626031.263 -13127924.056 10 0 60988 65700.00000 0 15209259.162 -13162499.339 -15661392.246 10 0 60988 66600.00000 0 14167658.075 -11363289.163 -17890091.889 10 0 60988 67500.00000 0 13167653.050 -9257406.932 -19770712.525 10 0 60988 68400.00000 0 12262096.489 -6885797.482 -21266742.259 10 0 60988 69300.00000 0 11496335.597 -4299877.752 -22349174.441 10 0 60988 70200.00000 0 10906271.488 -1559635.201 -22997065.722 10 0 60988 71100.00000 0 10516836.444 1268629.549 -23197935.318 10 0 60988 72000.00000 0 10340952.757 4114821.901 -22947998.543 10 0 60988 72900.00000 0 10379016.009 6907729.739 -22252230.929 10 0 60988 73800.00000 0 10618923.487 9577746.329 -21124262.473 10 0 60988 74700.00000 0 11036645.493 12059527.139 -19586104.727 10 0 60988 75600.00000 0 11597314.563 14294471.104 -17667716.495 10 0 60988 76500.00000 0 12256785.973 16232924.301 -15406416.904 10 0 60988 77400.00000 0 12963603.252 17836015.638 -12846157.334 10 0 60988 78300.00000 0 13661285.557 19077049.563 -10036666.401 10 0 60988 79200.00000 0 14290840.380 19942399.211 -7032484.448 10 0 60988 80100.00000 0 14793395.608 20431864.189 -3891906.212 10 0 60988 81000.00000 0 15112840.084 20558479.486 -675852.024 10 0 60988 81900.00000 0 15198361.410 20347784.784 2553310.728 10 0 60988 82800.00000 0 15006774.063 19836585.933 5732973.102 10 0 60988 83700.00000 0 14504539.705 19071261.385 8801493.905 10 0 60988 84600.00000 0 13669394.404 18105685.313 11699389.559 10 0 60988 85500.00000 0 12491513.933 16998854.964 14370481.728 10 0 60989 0.00000 0 10974167.680 15812322.043 16762980.659 10 0 60989 900.00000 0 9133832.006 14607535.223 18830484.938 10 0 60989 1800.00000 0 6999759.197 13443206.568 20532875.646 10 0 60989 2700.00000 0 4613016.005 12372809.846 21837092.421 10 0 60989 3600.00000 0 2025032.187 11442316.721 22717773.615 10 0 60989 4500.00000 0 -704282.867 10688264.742 23157749.818 10 0 60989 5400.00000 0 -3508778.743 10136237.903 23148381.125 10 0 60989 6300.00000 0 -6318566.472 9799823.380 22689731.543 10 0 60989 7200.00000 0 -9062682.466 9680088.321 21790576.726 10 0 60989 8100.00000 0 -11671804.567 9765598.990 20468244.267 10 0 60989 9000.00000 0 -14080908.428 10032981.996 18748288.684 10 0 60989 9900.00000 0 -16231754.399 10448004.663 16664006.382 10 0 60989 10800.00000 0 -18075101.749 10967129.745 14255798.878 10 0 60989 11700.00000 0 -19572557.995 11539479.536 11570395.594 10 0 60989 12600.00000 0 -20697985.885 12109126.822 8659950.530 10 0 60989 13500.00000 0 -21438408.930 12617615.966 5581029.847 10 0 60989 14400.00000 0 -21794377.263 13006607.149 2393509.867 10 0 60989 15300.00000 0 -21779778.315 13220531.189 -840592.758 10 0 60989 16200.00000 0 -21421100.354 13209141.424 -4058335.325 10 0 60989 17100.00000 0 -20756180.284 12929853.346 -7197083.272 10 0 60989 18000.00000 0 -19832489.096 12349771.437 -10195739.072 10 0 60989 18900.00000 0 -18705028.232 11447315.976 -12995940.766 10 0 60989 19800.00000 0 -17433926.608 10213379.669 -15543205.741 10 0 60989 20700.00000 0 -16081840.792 8651964.060 -17787996.560 10 0 60989 21600.00000 0 -14711268.964 6780267.897 -19686687.589 10 0 60989 22500.00000 0 -13381892.606 4628222.988 -21202413.381 10 0 60989 23400.00000 0 -12148058.344 2237496.502 -22305782.431 10 0 60989 24300.00000 0 -11056505.967 -339998.863 -22975442.891 10 0 60989 25200.00000 0 -10144437.780 -3044024.850 -23198489.908 10 0 60989 26100.00000 0 -9438009.722 -5808287.811 -22970707.475 10 0 60989 27000.00000 0 -8951306.565 -8562964.802 -22296640.955 10 0 60989 27900.00000 0 -8685842.955 -11237380.843 -21189499.643 10 0 60989 28800.00000 0 -8630609.905 -13762726.500 -19670891.943 10 0 60989 29700.00000 0 -8762663.414 -16074703.518 -17770398.782 10 0 60989 30600.00000 0 -9048229.200 -18115989.384 -15524993.867 10 0 60989 31500.00000 0 -9444276.059 -19838419.262 -12978322.180 10 0 60989 32400.00000 0 -9900490.744 -21204795.649 -10179850.758 10 0 60989 33300.00000 0 -10361570.613 -22190251.543 -7183908.128 10 0 60989 34200.00000 0 -10769737.021 -22783111.472 -4048630.954 10 0 60989 35100.00000 0 -11067363.268 -22985215.687 -834838.203 10 0 60989 36000.00000 0 -11199606.158 -22811695.070 2395145.516 10 0 60989 36900.00000 0 -11116930.131 -22290207.201 5578694.695 10 0 60989 37800.00000 0 -10777417.436 -21459666.433 8654092.568 10 0 60989 38700.00000 0 -10148766.837 -20368521.799 11561722.459 10 0 60989 39600.00000 0 -9209896.329 -19072655.326 14245217.944 10 0 60989 40500.00000 0 -7952081.953 -17632989.001 16652549.974 10 0 60989 41400.00000 0 -6379584.034 -16112900.545 18737030.348 10 0 60989 42300.00000 0 -4509733.546 -14575555.974 20458212.594 10 0 60989 43200.00000 0 -2372473.622 -13081270.154 21782673.373 10 0 60989 44100.00000 0 -9373.775 -11685005.251 22684659.770 10 0 60989 45000.00000 0 2527843.778 -10434111.179 23146590.264 10 0 60989 45900.00000 0 5179206.190 -9366402.035 23159399.887 10 0 60989 46800.00000 0 7878743.124 -8508648.574 22722722.757 10 0 60989 47700.00000 0 10556999.005 -7875549.623 21844908.099 10 0 60989 48600.00000 0 13143701.452 -7469225.439 20542868.765 10 0 60989 49500.00000 0 15570476.136 -7279254.422 18841764.284 10 0 60989 50400.00000 0 17773495.929 -7283251.907 16774523.548 10 0 60989 51300.00000 0 19695954.462 -7447967.084 14381215.261 10 0 60989 52200.00000 0 21290261.019 -7730852.169 11708277.342 10 0 60989 53100.00000 0 22519864.843 -8082037.856 8807619.435 10 0 60989 54000.00000 0 23360632.128 -8446631.602 5735615.427 10 0 60989 54900.00000 0 23801717.491 -8767241.237 2552005.381 10 0 60989 55800.00000 0 23845892.902 -8986616.412 -681271.450 10 0 60989 56700.00000 0 23509320.002 -9050295.055 -3901289.254 10 0 60989 57600.00000 0 22820775.367 -8909141.421 -7045369.409 10 0 60989 58500.00000 0 21820361.674 -8521666.827 -10052310.200 10 0 60989 59400.00000 0 20557759.657 -7856033.274 -12863587.416 10 0 60989 60300.00000 0 19090095.312 -6891653.726 -15424501.389 10 0 60989 61200.00000 0 17479513.195 -5620320.087 -17685247.230 10 0 60989 62100.00000 0 15790558.925 -4046810.169 -19601886.854 10 0 60989 63000.00000 0 14087481.817 -2188947.126 -21137203.675 10 0 60989 63900.00000 0 12431571.639 -77108.202 -22261423.402 10 0 60989 64800.00000 0 10878641.516 2246797.106 -22952787.372 10 0 60989 65700.00000 0 9476762.408 4730837.070 -23197967.930 10 0 60989 66600.00000 0 8264343.526 7314993.102 -22992318.574 10 0 60989 67500.00000 0 7268638.121 9933439.986 -22339954.862 10 0 60989 68400.00000 0 6504735.921 12517076.318 -21253665.294 10 0 60989 69300.00000 0 5975082.892 14996200.133 -19754654.576 10 0 60989 70200.00000 0 5669546.827 17303218.950 -17872124.759 10 0 60989 71100.00000 0 5566024.369 19375282.094 -15642702.703 10 0 60989 72000.00000 0 5631562.498 21156726.466 -13109725.147 10 0 60989 72900.00000 0 5823946.032 22601234.803 -10322395.306 10 0 60989 73800.00000 0 6093683.308 23673617.397 -7334827.278 10 0 60989 74700.00000 0 6386305.619 24351143.902 -4204996.730 10 0 60989 75600.00000 0 6644882.926 24624370.621 -993618.075 10 0 60989 76500.00000 0 6812649.427 24497429.617 2237030.212 10 0 60989 77400.00000 0 6835627.990 23987768.371 5424309.472 10 0 60989 78300.00000 0 6665142.607 23125351.631 8506430.770 10 0 60989 79200.00000 0 6260112.756 21951359.355 11423647.598 10 0 60989 80100.00000 0 5589032.734 20516435.610 14119408.529 10 0 60989 81000.00000 0 4631552.221 18878561.813 16541447.853 10 0 60989 81900.00000 0 3379590.971 17100643.189 18642793.567 10 0 60989 82800.00000 0 1837939.912 15247909.058 20382673.665 10 0 60989 83700.00000 0 24322.264 13385235.097 21727303.744 10 0 60989 84600.00000 0 -2031089.355 11574498.805 22650541.175 10 0 60989 85500.00000 0 -4286681.379 9872077.910 23134393.502 10 0 60990 0.00000 0 -6690892.839 8326595.584 23169371.451 10 0 60990 900.00000 0 -9184134.999 6977005.181 22754679.549 10 0 60990 1800.00000 0 -11701055.749 5851096.012 21898240.360 10 0 60990 2700.00000 0 -14173060.425 4964479.536 20616551.281 10 0 60990 3600.00000 0 -16530982.348 4320100.283 18934375.627 10 0 60990 4500.00000 0 -18707794.085 3908291.139 16884273.055 10 0 60990 5400.00000 0 -20641246.811 3707370.894 14505977.301 10 0 60990 6300.00000 0 -22276327.806 3684758.984 11845632.261 10 0 60990 7200.00000 0 -23567433.128 3798560.556 8954900.423 10 0 60990 8100.00000 0 -24480164.045 3999554.796 5889960.410 10 0 60990 9000.00000 0 -24992671.272 4233502.195 2710412.947 10 0 60990 9900.00000 0 -25096489.817 4443672.444 -521883.235 10 0 60990 10800.00000 0 -24796828.803 4573485.024 -3744022.319 10 0 60990 11700.00000 0 -24112303.638 4569149.369 -6893284.688 10 0 60990 12600.00000 0 -23074121.741 4382191.359 -9908367.438 10 0 60990 13500.00000 0 -21724756.308 3971757.627 -12730586.998 10 0 60990 14400.00000 0 -20116164.491 3306598.618 -15305029.384 10 0 60990 15300.00000 0 -18307625.688 2366645.178 -17581624.750 10 0 60990 16200.00000 0 -16363291.704 1144110.869 -19516124.752 10 0 60990 17100.00000 0 -14349552.465 -355927.473 -21070963.456 10 0 60990 18000.00000 0 -12332328.516 -2115496.117 -22215985.107 10 0 60990 18900.00000 0 -10374404.085 -4104239.746 -22929025.055 10 0 60990 19800.00000 0 -8532912.394 -6280464.515 -23196333.160 10 0 60990 20700.00000 0 -6857077.952 -8592665.453 -23012832.247 10 0 60990 21600.00000 0 -5386309.386 -10981474.654 -22382207.437 10 0 60990 22500.00000 0 -4148721.234 -13381949.220 -21316825.389 10 0 60990 23400.00000 0 -3160144.994 -15726103.808 -19837485.711 10 0 60990 24300.00000 0 -2423669.004 -17945582.626 -17973009.886 10 0 60990 25200.00000 0 -1929724.575 -19974360.053 -15759675.999 10 0 60990 26100.00000 0 -1656712.983 -21751357.829 -13240510.457 10 0 60990 27000.00000 0 -1572145.315 -23222870.400 -10464450.459 10 0 60990 27900.00000 0 -1634245.869 -24344697.921 -7485393.435 10 0 60990 28800.00000 0 -1793950.440 -25083898.602 -4361151.801 10 0 60990 29700.00000 0 -1997214.461 -25420087.919 -1152333.184 10 0 60990 30600.00000 0 -2187533.069 -25346231.076 2078832.293 10 0 60990 31500.00000 0 -2308566.379 -24868896.191 5269695.029 10 0 60990 32400.00000 0 -2306758.982 -24007958.131 8358396.114 10 0 60990 33300.00000 0 -2133842.972 -22795765.746 11285061.421 10 0 60990 34200.00000 0 -1749118.787 -21275807.560 13992956.702 10 0 60990 35100.00000 0 -1121417.517 -19500931.728 16429581.721 10 0 60990 36000.00000 0 -230661.611 -17531194.437 18547682.709 10 0 60990 36900.00000 0 931042.246 -15431426.243 20306164.004 10 0 60990 37800.00000 0 2358824.952 -13268617.347 21670881.807 10 0 60990 38700.00000 0 4035016.971 -11109230.109 22615305.191 10 0 60990 39600.00000 0 5929653.595 -9016550.064 23121031.898 10 0 60990 40500.00000 0 8001504.098 -7048184.976 23178149.159 10 0 60990 41400.00000 0 10199583.724 -5253815.339 22785432.455 10 0 60990 42300.00000 0 12465087.274 -3673289.421 21950378.028 10 0 60990 43200.00000 0 14733665.460 -2335141.720 20689067.848 10 0 60990 44100.00000 0 16937950.655 -1255596.303 19025868.791 10 0 60990 45000.00000 0 19010227.833 -438096.452 16992970.796 10 0 60990 45900.00000 0 20885140.003 126619.856 14629771.873 10 0 60990 46800.00000 0 22502315.386 459901.868 11982120.828 10 0 60990 47700.00000 0 23808806.300 594051.505 9101431.575 10 0 60990 48600.00000 0 24761237.060 570720.368 6043685.697 10 0 60990 49500.00000 0 25327570.051 438906.356 2868342.416 10 0 60990 50400.00000 0 25488414.877 252635.228 -362822.574 10 0 60990 51300.00000 0 25237824.642 68426.131 -3586926.266 10 0 60990 52200.00000 0 24583545.145 -57350.426 -6741211.074 10 0 60990 53100.00000 0 23546705.978 -71108.860 -9764276.036 10 0 60990 54000.00000 0 22160966.342 75434.056 -12597281.358 10 0 60990 54900.00000 0 20471151.681 422968.725 -15185101.787 10 0 60990 55800.00000 0 18531438.847 1002627.496 -17477405.427 10 0 60990 56700.00000 0 16403166.680 1834428.967 -19429636.380 10 0 60990 57600.00000 0 14152364.523 2926198.503 -21003881.856 10 0 60990 58500.00000 0 11847102.871 4273011.222 -22169606.895 10 0 60990 59400.00000 0 9554777.487 5857181.446 -22904242.840 10 0 60990 60300.00000 0 7339440.595 7648799.453 -23193618.738 10 0 60990 61200.00000 0 5259290.385 9606793.251 -23032228.051 10 0 60990 62100.00000 0 3364422.908 11680471.114 -22423326.358 10 0 60990 63000.00000 0 1694939.037 13811480.531 -21378858.915 10 0 60990 63900.00000 0 279484.063 15936101.908 -19919220.188 10 0 60990 64800.00000 0 -865720.880 17987781.501 -18072850.541 10 0 60990 65700.00000 0 -1737317.002 19899798.194 -15875678.252 10 0 60990 66600.00000 0 -2344699.268 21607953.145 -13370417.868 10 0 60990 67500.00000 0 -2709367.501 23053170.506 -10605738.614 10 0 60990 68400.00000 0 -2863766.148 24183901.042 -7635318.876 10 0 60990 69300.00000 0 -2849662.914 24958228.747 -4516805.082 10 0 60990 70200.00000 0 -2716135.744 25345592.844 -1310695.056 10 0 60990 71100.00000 0 -2517253.803 25328053.639 1920832.666 10 0 60990 72000.00000 0 -2309550.880 24901049.650 5115120.902 10 0 60990 72900.00000 0 -2149398.177 24073614.635 8210244.180 10 0 60990 73800.00000 0 -2090387.507 22868045.635 11146204.114 10 0 60990 74700.00000 0 -2180835.439 21319035.923 13866086.885 10 0 60990 75600.00000 0 -2461513.707 19472308.991 16317160.817 10 0 60990 76500.00000 0 -2963701.711 17382810.264 18451893.235 10 0 60990 77400.00000 0 -3707643.438 15112531.515 20228867.426 10 0 60990 78300.00000 0 -4701474.307 12728057.991 21613582.509 10 0 60990 79200.00000 0 -5940663.876 10297939.589 22579121.231 10 0 60990 80100.00000 0 -7407999.028 7889994.622 23106673.128 10 0 60990 81000.00000 0 -9074109.789 5568657.386 23185903.120 10 0 60990 81900.00000 0 -10898517.513 3392478.937 22815158.340 10 0 60990 82800.00000 0 -12831163.398 1411884.250 22001508.846 10 0 60990 83700.00000 0 -14814355.231 -332721.617 20760620.798 10 0 60990 84600.00000 0 -16785052.696 -1812419.961 19116463.679 10 0 60990 85500.00000 0 -18677397.012 -3010756.716 17100856.218 10 0 60991 0.00000 0 -20425379.980 -3924191.871 14752858.913 10 0 60991 900.00000 0 -21965542.093 -4562001.890 12118022.593 10 0 60991 1800.00000 0 -23239584.412 -4945638.244 9247509.982 10 0 60991 2700.00000 0 -24196787.335 -5107570.956 6197102.532 10 0 60991 3600.00000 0 -24796131.532 -5089665.038 3026114.701 10 0 60991 4500.00000 0 -25008031.863 -4941159.499 -203764.221 10 0 60991 5400.00000 0 -24815610.020 -4716335.166 -3429677.427 10 0 60991 6300.00000 0 -24215451.290 -4471971.067 -6588832.741 10 0 60991 7200.00000 0 -23217812.700 -4264698.408 -9619734.459 10 0 60991 8100.00000 0 -21846273.160 -4148365.595 -12463389.772 10 0 60991 9000.00000 0 -20136840.079 -4171527.320 -15064465.211 10 0 60991 9900.00000 0 -18136550.030 -4375165.346 -17372369.626 10 0 60991 10800.00000 0 -15901622.542 -4790738.565 -19342242.029 10 0 60991 11700.00000 0 -13495244.885 -5438645.647 -20935824.794 10 0 60991 12600.00000 0 -10985081.126 -6327165.898 -22122205.255 10 0 60991 13500.00000 0 -8440610.011 -7451923.378 -22878411.661 10 0 60991 14400.00000 0 -5930403.005 -8795897.138 -23189852.558 10 0 60991 15300.00000 0 -3519455.914 -10329977.247 -23050591.774 10 0 60991 16200.00000 0 -1266684.804 -12014043.334 -22463454.542 10 0 60991 17100.00000 0 777310.406 -13798520.476 -21439963.448 10 0 60991 18000.00000 0 2572122.742 -15626347.305 -20000106.164 10 0 60991 18900.00000 0 4088978.787 -17435274.078 -18171939.970 10 0 60991 19800.00000 0 5311684.849 -19160394.772 -15991041.120 10 0 60991 20700.00000 0 6237041.127 -20736807.483 -13499809.926 10 0 60991 21600.00000 0 6874708.584 -22102292.176 -10746645.115 10 0 60991 22500.00000 0 7246535.985 -23199894.069 -7785003.447 10 0 60991 23400.00000 0 7385377.052 -23980304.848 -4672362.763 10 0 60991 24300.00000 0 7333448.923 -24403942.380 -1469108.487 10 0 60991 25200.00000 0 7140302.120 -24442642.100 1762634.972 10 0 60991 26100.00000 0 6860488.419 -24080889.441 4960205.320 10 0 60991 27000.00000 0 6551025.477 -23316541.863 8061612.886 10 0 60991 27900.00000 0 6268765.439 -22161010.195 11006737.266 10 0 60991 28800.00000 0 6067778.662 -20638891.605 13738487.178 10 0 60991 29700.00000 0 5996862.860 -18787069.202 16203901.429 10 0 60991 30600.00000 0 6097282.671 -16653315.382 18355170.163 10 0 60991 31500.00000 0 6400834.926 -14294456.514 20150557.099 10 0 60991 32400.00000 0 6928321.287 -11774174.619 21555205.484 10 0 60991 33300.00000 0 7688492.950 -9160536.557 22541812.666 10 0 60991 34200.00000 0 8677512.548 -6523352.435 23091160.599 10 0 60991 35100.00000 0 9878956.921 -3931471.943 23192492.225 10 0 60991 36000.00000 0 11264362.016 -1450129.853 22843726.384 10 0 60991 36900.00000 0 12794288.656 861549.980 22051506.766 10 0 60991 37800.00000 0 14419866.206 2952789.192 20831083.310 10 0 60991 38700.00000 0 16084751.121 4783035.789 19206027.510 10 0 60991 39600.00000 0 17727419.730 6323413.446 17207786.088 10 0 60991 40500.00000 0 19283700.304 7557679.110 14875080.608 10 0 60991 41400.00000 0 20689438.907 8482649.127 12253163.598 10 0 60991 42300.00000 0 21883187.334 9108076.250 9392944.796 10 0 60991 43200.00000 0 22808799.939 9455982.939 6350003.874 10 0 60991 44100.00000 0 23417829.474 9559479.405 3183508.615 10 0 60991 45000.00000 0 23671620.046 9461116.760 -44940.240 10 0 60991 45900.00000 0 23543007.852 9210845.599 -3272514.455 10 0 60991 46800.00000 0 23017556.758 8863667.336 -6436389.781 10 0 60991 47700.00000 0 22094275.492 8477078.840 -9474978.374 10 0 60991 48600.00000 0 20785785.268 8108419.928 -12329137.022 10 0 60991 49500.00000 0 19117930.104 7812237.317 -14943326.581 10 0 60991 50400.00000 0 17128845.874 7637777.942 -17266699.094 10 0 60991 51300.00000 0 14867527.103 7626718.790 -19254090.798 10 0 60991 52200.00000 0 12391951.751 7811230.097 -20866901.416 10 0 60991 53100.00000 0 9766842.805 8212454.315 -22073842.602 10 0 60991 54000.00000 0 7061160.515 8839465.343 -22851541.391 10 0 60991 54900.00000 0 4345430.093 9688751.991 -23184987.496 10 0 60991 55800.00000 0 1689016.255 10744247.318 -23067816.517 10 0 60991 56700.00000 0 -842542.272 11977902.460 -22502424.412 10 0 60991 57600.00000 0 -3190028.075 13350780.632 -21499911.765 10 0 60991 58500.00000 0 -5302767.396 14814625.196 -20079859.652 10 0 60991 59400.00000 0 -7140488.425 16313835.941 -18269941.990 10 0 60991 60300.00000 0 -8674739.823 17787770.677 -16105382.240 10 0 60991 61200.00000 0 -9889812.155 19173275.733 -13628265.232 10 0 60991 62100.00000 0 -10783125.745 20407339.412 -10886717.545 10 0 60991 63000.00000 0 -11365070.647 21429757.380 -7933972.276 10 0 60991 63900.00000 0 -11658307.267 22185698.400 -4827336.330 10 0 60991 64800.00000 0 -11696558.597 22628063.030 -1627080.122 10 0 60991 65700.00000 0 -11522946.168 22719536.524 1604728.882 10 0 60991 66600.00000 0 -11187940.787 22434249.905 4805426.253 10 0 60991 67500.00000 0 -10747015.095 21758979.576 7912961.202 10 0 60991 68400.00000 0 -10258097.312 20693835.038 10867094.451 10 0 60991 69300.00000 0 -9778933.659 19252405.637 13610560.393 10 0 60991 70200.00000 0 -9364470.654 17461359.721 16090171.408 10 0 60991 71100.00000 0 -9064367.422 15359512.313 18257843.439 10 0 60991 72000.00000 0 -8920742.675 12996399.346 20071523.457 10 0 60991 72900.00000 0 -8966251.093 10430416.899 21496001.430 10 0 60991 73800.00000 0 -9222570.135 7726601.706 22503591.615 10 0 60991 74700.00000 0 -9699361.195 4954143.999 23074670.346 10 0 60991 75600.00000 0 -10393749.389 2183734.738 23198060.139 10 0 60991 76500.00000 0 -11290344.719 -515143.870 22871252.630 10 0 60991 77400.00000 0 -12361804.932 -3076873.202 22100465.702 10 0 60991 78300.00000 0 -13569917.824 -5442189.107 20900533.087 10 0 60991 79200.00000 0 -14867159.030 -7560406.146 19294627.722 10 0 60991 80100.00000 0 -16198661.269 -9391283.171 17313823.198 10 0 60991 81000.00000 0 -17504513.532 -10906452.913 14996500.701 10 0 60991 81900.00000 0 -18722294.423 -12090356.124 12387611.886 10 0 60991 82800.00000 0 -19789733.489 -12940641.347 9537811.141 10 0 60991 83700.00000 0 -20647388.479 -13468013.744 6502473.469 10 0 60991 84600.00000 0 -21241225.187 -13695539.565 3340616.844 10 0 60991 85500.00000 0 -21524990.211 -13657435.969 113750.146 99